1497412801.13,7449,17.94,73530.0,-1.19,-1.87,-1.87,0,*67
1497412802.39,7450,17.94,73534.3,-1.19,-2.03,-1.95,0,*63
1497412803.65,7451,17.88,73534.5,-1.19,-1.95,-1.87,0,*6D
1497412804.91,7452,17.94,73534.8,-1.19,-2.51,-2.51,0,*6D
1497412806.12,7453,17.88,73528.0,-1.19,-2.83,-2.83,0,*6C
1497412807.32,7454,17.94,73530.3,-1.19,-2.83,-2.79,0,*6E
1497412808.59,7455,17.94,73528.3,-1.19,-2.67,-2.55,0,*6B
1497412809.85,7456,17.94,73528.8,-1.19,-2.55,-2.51,0,*6D
1497412811.09,7457,17.94,73528.8,-1.19,-2.55,-2.39,0,*62
1497412812.3,7458,17.94,73526.5,-1.19,-2.43,-2.43,0,*67
1497412813.56,7459,17.88,73528.5,-1.19,-2.55,-2.51,0,*62
1497412814.8,7460,17.94,73528.0,-1.21,-2.67,-2.59,0,*6A
1497412816.04,7461,17.94,73518.5,-1.21,-2.71,-2.67,0,*61
1497412817.28,7462,17.94,73524.0,-1.21,-2.71,-2.67,0,*62
1497412818.52,7463,17.88,73520.5,-1.21,-2.59,-2.47,0,*6B
1497412819.73,7464,17.88,73526.3,-1.21,-2.47,-2.43,0,*67
1497412820.95,7465,17.88,73528.5,-1.21,-2.47,-2.35,0,*67
1497412822.19,7466,17.94,73528.0,-1.21,-2.59,-2.55,0,*6D
1497412823.4,7467,17.94,73526.8,-1.19,-2.31,-2.31,0,*6B
1497412824.64,7468,17.94,73536.0,-1.21,-2.11,-2.11,0,*6F
1497412825.89,7469,17.94,73534.3,-1.21,-2.11,-1.99,0,*6D
1497412827.14,7470,17.94,73526.3,-1.19,-1.95,-1.95,0,*6D
1497412828.4,7471,17.94,73532.0,-1.19,-2.07,-1.95,0,*64
1497412829.66,7472,17.94,73534.5,-1.19,-1.91,-1.87,0,*68
1497412830.9,7473,17.94,73530.3,-1.19,-1.91,-1.79,0,*68
1497412832.16,7474,17.88,73530.3,-1.19,-1.95,-1.91,0,*6D
1497412833.37,7475,17.94,73528.3,-1.17,-2.27,-2.07,0,*64
1497412834.6,7476,17.94,73530.8,-1.17,-2.03,-1.95,0,*69
1497412835.85,7477,17.94,73528.3,-1.19,-1.95,-1.95,0,*6A
1497412837.05,7478,17.88,73534.5,-1.15,-1.75,-1.63,0,*6E
1497412838.23,7479,17.94,73538.3,-1.17,-1.79,-1.75,0,*66
1497412839.43,7480,17.94,73532.3,-1.15,-1.71,-1.63,0,*6D
1497412840.61,7481,17.88,73532.3,-1.17,-1.75,-1.79,0,*61
1497412841.81,7482,17.94,73532.5,-1.15,-1.75,-1.71,0,*68
1497412843.01,7483,17.94,73546.8,-1.15,-1.71,-1.71,0,*6D
1497412844.2,7484,17.94,73538.5,-1.17,-1.79,-1.75,0,*64
1497412845.42,7485,17.94,73536.3,-1.15,-1.87,-1.75,0,*66
1497412846.66,7486,17.94,73546.3,-1.15,-1.91,-1.83,0,*6B
1497412847.91,7487,17.94,73550.0,-1.13,-2.11,-2.15,0,*6B
1497412849.13,7488,17.94,73512.5,-1.13,-2.23,-2.15,0,*65
1497412850.4,7489,17.94,73524.5,-1.13,-1.91,-1.91,0,*61
1497412851.66,7490,17.94,73520.5,-1.13,-1.91,-1.83,0,*6A
1497412852.94,7491,17.94,73512.0,-1.13,-1.87,-1.83,0,*6C
1497412854.13,7492,17.94,73516.0,-1.11,-1.79,-1.79,0,*69
1497412855.34,7493,17.94,73532.3,-1.13,-1.75,-1.75,0,*6A
1497412856.59,7494,17.88,73532.0,-1.13,-1.83,-1.75,0,*64
1497412857.86,7495,17.94,73538.5,-1.13,-1.87,-1.87,0,*6C
1497412859.08,7496,17.88,73530.5,-1.13,-2.35,-2.23,0,*68
1497412860.32,7497,17.94,73534.5,-1.13,-2.23,-2.11,0,*6F
1497412861.54,7498,17.94,73514.5,-1.13,-2.39,-2.35,0,*6D
1497412862.78,7499,17.94,73520.0,-1.11,-1.99,-1.95,0,*6E
1497412864.05,7500,17.94,73526.3,-1.13,-2.03,-1.99,0,*61
1497412865.33,7501,17.88,73506.3,-1.13,-2.63,-2.63,0,*60
1497412866.6,7502,17.94,73518.0,-1.13,-2.63,-2.63,0,*63
1497412867.83,7503,17.94,73500.0,-1.15,-2.15,-1.99,0,*63
1497412869.05,7504,17.94,73504.3,-1.15,-1.83,-1.75,0,*6A
1497412870.24,7505,17.94,73518.5,-1.11,-1.55,-1.55,0,*66
1497412871.48,7506,17.94,73530.5,-1.13,-1.51,-1.47,0,*60
1497412872.72,7507,17.94,73512.8,-1.11,-1.43,-1.35,0,*65
1497412873.94,7508,17.88,73528.5,-1.11,-1.43,-1.33,0,*6C
1497412875.15,7509,17.94,73522.5,-1.11,-1.43,-1.33,0,*6D
1497412876.37,7510,17.94,73534.3,-1.11,-1.43,-1.33,0,*65
1497412877.61,7511,17.94,73514.8,-1.07,-1.83,-1.83,0,*64
1497412878.83,7512,17.94,73534.3,-1.05,-1.67,-1.63,0,*61
1497412880.07,7513,17.88,73534.0,-1.05,-1.83,-1.75,0,*6D
1497412881.29,7514,17.88,73532.3,-1.05,-1.33,-1.17,0,*65
1497412882.51,7515,17.88,73534.8,-1.05,-1.29,-1.17,0,*6F
1497412883.75,7516,17.88,73540.3,-1.05,-1.21,-1.09,0,*6B
1497412884.97,7517,17.88,73550.8,-1.03,-1.43,-1.29,0,*6A
1497412886.21,7518,17.88,73554.8,-1.01,-1.17,-1.13,0,*6F
1497412887.43,7519,17.88,73552.8,-1.01,-1.25,-1.17,0,*6B
1497412888.66,7520,17.88,73550.8,-1.01,-1.35,-1.25,0,*61
1497412889.9,7521,17.88,73554.5,-1.01,-1.29,-1.13,0,*68
1497412891.11,7522,17.94,73560.0,-0.99,-1.25,-1.13,0,*57
1497412892.34,7523,17.88,73542.0,-0.97,-1.35,-1.25,0,*5C
1497412893.55,7524,17.94,73544.3,-0.97,-1.33,-1.21,0,*59
1497412894.79,7525,17.88,73542.0,-0.97,-1.21,-1.13,0,*5A
1497412895.99,7526,17.88,73542.3,-0.97,-1.67,-1.59,0,*55
1497412897.2,7527,17.94,73546.0,-0.97,-1.75,-1.71,0,*5D
1497412898.46,7528,17.88,73528.8,-0.97,-2.11,-1.95,0,*59
1497412899.72,7529,17.88,73528.5,-0.97,-1.47,-1.43,0,*53
1497412900.94,7530,17.88,73532.8,-0.97,-1.33,-1.21,0,*5C
1497412902.12,7531,17.94,73538.5,-0.99,-1.25,-1.17,0,*51
1497412903.34,7532,17.94,73544.3,-0.95,-1.21,-1.05,0,*59
1497412904.55,7533,17.94,73542.0,-0.93,-1.33,-1.29,0,*53
1497412905.74,7534,17.88,73534.0,-0.95,-1.29,-1.21,0,*51
1497412906.93,7535,17.88,73542.8,-0.95,-1.33,-1.21,0,*5B
1497412908.17,7536,17.88,73538.8,-0.93,-1.63,-1.43,0,*5F
1497412909.38,7537,17.88,73536.0,-0.95,-2.15,-1.83,0,*56
1497412910.56,7538,17.88,73518.8,-0.95,-2.27,-2.27,0,*55
1497412911.81,7539,17.88,73524.8,-0.93,-1.91,-1.91,0,*52
1497412913.02,7540,17.88,73516.3,-0.95,-2.15,-2.03,0,*5D
1497412914.24,7541,17.88,73516.5,-0.95,-1.83,-1.71,0,*56
1497412915.42,7542,17.88,73516.0,-0.95,-1.67,-1.55,0,*59
1497412916.66,7543,17.88,73520.5,-0.93,-1.39,-1.33,0,*55
1497412917.9,7544,17.88,73522.3,-0.93,-1.39,-1.29,0,*59
1497412919.11,7545,17.94,73522.0,-0.95,-1.55,-1.39,0,*55
1497412920.32,7546,17.88,73506.3,-0.95,-1.43,-1.33,0,*5B
1497412921.56,7547,17.88,73520.8,-0.93,-1.39,-1.21,0,*52
1497412922.8,7548,17.88,73518.3,-0.93,-1.39,-1.21,0,*5D
1497412924.04,7549,17.94,73516.5,-0.93,-1.39,-1.29,0,*54
1497412925.25,7550,17.88,73512.5,-0.93,-1.33,-1.29,0,*56
1497412926.44,7551,17.88,73508.5,-0.91,-1.29,-1.17,0,*53
1497412927.67,7552,17.88,73500.3,-0.89,-1.35,-1.29,0,*59
1497412928.86,7553,17.88,73504.5,-0.91,-1.29,-1.29,0,*5C
1497412930.08,7554,17.88,73524.8,-0.89,-1.35,-1.25,0,*53
1497412931.31,7555,17.88,73528.3,-0.89,-1.35,-1.29,0,*5E
1497412932.53,7556,17.88,73534.8,-0.91,-1.39,-1.29,0,*58
1497412933.78,7557,17.88,73532.0,-0.89,-1.47,-1.35,0,*54
1497412935.02,7558,17.88,73528.5,-0.89,-1.35,-1.29,0,*53
1497412936.25,7559,17.88,73534.8,-0.89,-1.39,-1.29,0,*5E
1497412937.48,7560,17.88,73528.5,-0.89,-1.51,-1.47,0,*52
1497412938.71,7561,17.88,73536.5,-0.89,-1.63,-1.47,0,*52
1497412939.91,7562,17.88,73536.5,-0.85,-1.63,-1.55,0,*5E
1497412941.11,7563,17.88,73534.3,-0.85,-1.63,-1.59,0,*53
1497412942.37,7564,17.88,73546.0,-0.85,-2.07,-1.99,0,*59
1497412943.63,7565,17.88,73548.8,-0.85,-2.11,-2.07,0,*5B
1497412944.84,7566,17.88,73548.3,-0.89,-2.27,-2.15,0,*52
1497412946.1,7567,17.94,73554.5,-0.89,-2.55,-2.47,0,*51
1497412947.34,7568,17.88,73552.0,-0.91,-2.55,-2.47,0,*57
1497412948.55,7569,17.88,73550.8,-0.91,-2.79,-2.75,0,*59
1497412949.73,7570,17.88,73548.5,-0.91,-2.99,-2.91,0,*55
1497412950.94,7571,17.88,73546.0,-0.91,-2.51,-2.39,0,*52
1497412952.18,7572,17.88,73550.8,-0.95,-2.59,-2.51,0,*53
1497412953.44,7573,17.88,73556.8,-0.93,-2.59,-2.51,0,*54
1497412954.65,7574,17.88,73552.0,-0.95,-2.83,-2.59,0,*5A
1497412955.86,7575,17.88,73554.3,-0.95,-2.83,-2.71,0,*51
1497412957.06,7576,17.88,73540.5,-0.95,-2.19,-2.03,0,*54
1497412958.3,7577,17.88,73540.0,-0.97,-2.19,-2.11,0,*54
1497412959.57,7578,17.88,73538.5,-0.97,-2.11,-2.07,0,*54
1497412960.76,7579,17.88,73530.0,-0.95,-1.71,-1.71,0,*50
1497412962.0,7580,17.94,73526.3,-0.95,-2.03,-1.91,0,*5E
1497412963.19,7581,17.88,73538.8,-0.95,-1.71,-1.71,0,*57
1497412964.41,7582,17.88,73540.5,-0.93,-1.71,-1.71,0,*52
1497412965.6,7583,17.88,73538.5,-0.95,-2.31,-2.31,0,*55
1497412966.84,7584,17.88,73550.0,-0.95,-2.59,-2.55,0,*5E
1497412968.04,7585,17.88,73544.8,-0.97,-3.07,-3.07,0,*51
1497412969.23,7586,17.88,73546.5,-0.99,-3.27,-3.23,0,*58
1497412970.43,7587,17.88,73544.3,-0.97,-3.19,-3.19,0,*53
1497412971.62,7588,17.88,73546.8,-0.99,-3.11,-2.99,0,*53
1497412972.83,7589,17.88,73542.5,-1.01,-3.11,-2.91,0,*6A
1497412974.08,7590,17.88,73538.0,-1.03,-2.63,-2.51,0,*68
1497412975.33,7591,17.88,73540.3,-1.03,-2.71,-2.51,0,*6A
1497412976.55,7592,17.88,73538.0,-1.03,-2.55,-2.39,0,*61
1497412977.74,7593,17.88,73548.0,-1.03,-2.27,-2.15,0,*6B
1497412978.98,7594,17.88,73546.0,-1.03,-1.95,-1.83,0,*6A
1497412980.2,7595,17.88,73534.3,-1.03,-1.83,-1.75,0,*65
1497412981.42,7596,17.88,73536.8,-1.01,-1.71,-1.59,0,*67
1497412982.65,7597,17.88,73538.8,-1.01,-1.59,-1.47,0,*63
1497412983.93,7598,17.88,73538.5,-1.01,-1.47,-1.35,0,*66
1497412985.17,7599,17.88,73538.8,-0.99,-1.47,-1.35,0,*57
1497412986.4,7600,17.88,73538.0,-0.97,-1.35,-1.33,0,*59
1497412987.63,7601,17.88,73542.0,-0.97,-1.35,-1.33,0,*58
1497412988.86,7602,17.88,73538.5,-0.97,-1.43,-1.33,0,*5A
1497412990.07,7603,17.88,73546.5,-0.97,-1.33,-1.33,0,*5C
1497412991.26,7604,17.88,73542.3,-0.95,-1.33,-1.33,0,*59
1497412992.49,7605,17.88,73532.5,-0.93,-1.39,-1.29,0,*5F
1497412993.68,7606,17.88,73534.8,-0.95,-1.33,-1.29,0,*50
1497412994.89,7607,17.88,73528.3,-0.93,-1.33,-1.29,0,*57
1497412996.13,7608,17.88,73534.5,-0.93,-1.39,-1.29,0,*52
1497412997.37,7609,17.88,73536.3,-0.93,-1.43,-1.29,0,*5E
1497412998.61,7610,17.88,73536.5,-0.91,-1.39,-1.35,0,*54
1497412999.82,7611,17.88,73538.5,-0.91,-1.39,-1.29,0,*58
1497413001.0,7612,17.88,73536.8,-0.91,-2.35,-2.27,0,*59
1497413002.22,7613,17.88,73534.3,-0.91,-2.47,-2.39,0,*52
1497413003.48,7614,17.88,73534.8,-0.93,-2.71,-2.71,0,*5E
1497413004.69,7615,17.88,73538.8,-0.93,-3.07,-3.03,0,*5B
1497413005.88,7616,17.88,73542.3,-0.95,-2.95,-2.95,0,*5A
1497413007.06,7617,17.88,73550.5,-0.95,-2.83,-2.83,0,*5B
1497413008.3,7618,17.88,73558.0,-0.97,-2.87,-2.75,0,*5B
1497413009.48,7619,17.88,73536.3,-0.99,-2.99,-2.91,0,*51
1497413010.72,7620,17.94,73538.3,-0.99,-2.51,-2.47,0,*54
1497413011.95,7621,17.88,73546.5,-0.99,-2.67,-2.59,0,*5F
1497413013.17,7622,17.88,73546.0,-1.01,-3.11,-2.99,0,*60
1497413014.36,7623,17.88,73552.8,-0.99,-3.11,-3.03,0,*53
1497413015.55,7624,17.88,73546.0,-1.03,-3.23,-3.03,0,*67
1497413016.74,7625,17.88,73544.3,-1.03,-3.19,-3.19,0,*64
1497413017.92,7626,17.88,73552.8,-1.03,-2.91,-2.79,0,*61
1497413019.14,7627,17.88,73540.8,-1.05,-2.95,-2.91,0,*64
1497413020.35,7628,17.88,73542.3,-1.05,-3.27,-3.19,0,*62
1497413021.55,7629,17.88,73544.5,-1.03,-3.15,-3.03,0,*6F
1497413022.76,7630,17.88,73546.5,-1.07,-2.83,-2.67,0,*6E
1497413024.01,7631,17.88,73538.3,-1.07,-2.59,-2.47,0,*6A
1497413025.23,7632,17.88,73544.8,-1.07,-2.87,-2.75,0,*6B
1497413026.42,7633,17.88,73544.8,-1.07,-3.31,-3.19,0,*6D
1497413027.62,7634,17.88,73540.3,-1.07,-3.35,-3.35,0,*60
1497413028.84,7635,17.88,73532.5,-1.11,-3.47,-3.35,0,*63
1497413030.06,7636,17.88,73532.5,-1.13,-3.35,-3.27,0,*64
1497413031.28,7637,17.88,73524.5,-1.13,-2.99,-3.03,0,*64
1497413032.55,7638,17.94,73528.0,-1.13,-2.59,-2.47,0,*66
1497413033.79,7639,17.88,73532.5,-1.13,-2.15,-2.03,0,*6F
1497413035.04,7640,17.88,73544.3,-1.11,-2.07,-1.99,0,*60
1497413036.28,7641,17.88,73552.0,-1.11,-1.95,-1.95,0,*65
1497413037.55,7642,17.88,73536.8,-1.13,-2.51,-2.51,0,*64
1497413038.77,7643,17.88,73548.0,-1.11,-2.83,-2.75,0,*6E
1497413039.98,7644,17.88,73552.5,-1.11,-2.83,-2.71,0,*6D
1497413041.26,7645,17.88,73534.8,-1.13,-2.63,-2.63,0,*63
1497413042.53,7646,17.88,73520.8,-1.13,-2.51,-2.51,0,*60
1497413043.77,7647,17.88,73556.5,-1.13,-2.15,-2.03,0,*66
1497413044.99,7648,17.88,73564.3,-1.13,-2.39,-2.35,0,*62
1497413046.26,7649,17.88,73552.3,-1.13,-2.71,-2.71,0,*6F
1497413047.47,7650,17.88,73540.8,-1.13,-2.99,-2.91,0,*6F
1497413048.67,7651,17.88,73526.0,-1.15,-3.35,-3.23,0,*67
1497413049.88,7652,17.88,73528.0,-1.17,-2.79,-2.75,0,*6D
1497413051.06,7653,17.88,73508.3,-1.17,-2.27,-2.19,0,*6D
1497413052.31,7654,17.88,73520.5,-1.15,-2.03,-1.91,0,*6D
1497413053.55,7655,17.88,73532.0,-1.15,-1.91,-1.87,0,*63
1497413054.82,7656,17.88,73538.8,-1.13,-1.91,-1.83,0,*62
1497413056.09,7657,17.88,73546.0,-1.13,-1.91,-1.87,0,*67
1497413057.3,7658,17.88,73538.0,-1.13,-2.35,-2.27,0,*6C
1497413058.49,7659,17.88,73544.3,-1.11,-2.43,-2.35,0,*6D
1497413059.71,7660,17.88,73546.0,-1.13,-3.11,-2.99,0,*65
1497413060.92,7661,17.88,73544.8,-1.13,-2.99,-2.91,0,*6D
1497413062.12,7662,17.88,73544.3,-1.15,-3.11,-3.03,0,*63
1497413063.32,7663,17.88,73546.5,-1.15,-3.11,-3.03,0,*62
1497413064.5,7664,17.88,73546.5,-1.17,-3.19,-3.03,0,*6F
1497413065.69,7665,17.88,73536.8,-1.17,-2.95,-2.91,0,*61
1497413066.87,7666,17.88,73524.5,-1.17,-3.03,-2.95,0,*68
1497413068.06,7667,17.88,73528.3,-1.17,-3.19,-3.07,0,*68
1497413069.24,7668,17.88,73534.0,-1.17,-2.95,-2.91,0,*6C
1497413070.48,7669,17.88,73542.3,-1.17,-2.75,-2.75,0,*69
1497413071.69,7670,17.88,73532.3,-1.19,-2.95,-2.91,0,*6B
1497413072.9,7671,17.88,73528.8,-1.19,-2.91,-2.91,0,*6E
1497413074.13,7672,17.88,73518.3,-1.21,-2.59,-2.59,0,*66
1497413075.36,7673,17.88,73518.3,-1.19,-2.55,-2.43,0,*6B
1497413076.58,7674,17.88,73524.5,-1.19,-2.31,-2.15,0,*6D
1497413077.81,7675,17.88,73522.3,-1.19,-2.51,-2.43,0,*69
1497413079.02,7676,17.88,73526.8,-1.19,-2.27,-2.15,0,*68
1497413080.23,7677,17.88,73530.5,-1.19,-2.43,-2.19,0,*67
1497413081.5,7678,17.88,73530.5,-1.19,-2.63,-2.63,0,*67
1497413082.76,7679,17.88,73538.8,-1.19,-2.67,-2.63,0,*62
1497413083.99,7680,17.88,73532.3,-1.19,-2.51,-2.43,0,*63
1497413085.26,7681,17.88,73532.3,-1.19,-2.63,-2.63,0,*61
1497413086.48,7682,17.88,73530.3,-1.21,-2.47,-2.35,0,*6C
1497413087.75,7683,17.88,73534.3,-1.19,-2.07,-2.07,0,*63
1497413088.98,7684,17.88,73522.8,-1.17,-1.95,-1.91,0,*6E
1497413090.22,7685,17.88,73524.8,-1.17,-2.03,-2.03,0,*6B
1497413091.42,7686,17.88,73526.0,-1.19,-2.43,-2.39,0,*6B
1497413092.63,7687,17.88,73528.5,-1.19,-2.39,-2.39,0,*67
1497413093.9,7688,17.88,73524.3,-1.19,-2.63,-2.55,0,*6D
1497413095.11,7689,17.88,73526.0,-1.19,-2.19,-2.15,0,*65
1497413096.36,7690,17.88,73528.3,-1.19,-1.95,-1.95,0,*61
1497413097.6,7691,17.88,73528.8,-1.17,-1.95,-1.91,0,*6A
1497413098.8,7692,17.88,73518.3,-1.17,-2.15,-2.03,0,*6A
1497413099.99,7693,17.88,73528.8,-1.17,-2.31,-2.19,0,*66
1497413101.18,7694,17.88,73524.0,-1.15,-2.27,-2.23,0,*6D
1497413102.41,7695,17.88,73528.5,-1.15,-2.15,-1.99,0,*6F
1497413103.65,7696,17.88,73530.8,-1.17,-2.11,-2.07,0,*6E
1497413104.89,7697,17.88,73524.0,-1.17,-2.07,-2.03,0,*6C
1497413106.13,7698,17.88,73530.5,-1.17,-2.07,-2.07,0,*67
1497413107.3,7699,17.88,73540.3,-1.17,-2.39,-2.27,0,*69
1497413108.48,7700,17.88,73546.8,-1.17,-2.27,-2.27,0,*67
1497413109.66,7701,17.88,73530.5,-1.17,-2.39,-2.39,0,*66
1497413110.9,7702,17.88,73524.3,-1.17,-2.63,-2.55,0,*60
1497413112.09,7703,17.88,73524.8,-1.17,-2.27,-2.19,0,*69
1497413113.33,7704,17.88,73530.0,-1.15,-1.91,-1.87,0,*66
1497413114.53,7705,17.88,73534.5,-1.15,-1.75,-1.71,0,*64
1497413115.77,7706,17.88,73532.8,-1.15,-1.91,-1.87,0,*64
1497413117.02,7707,17.88,73532.3,-1.15,-2.03,-1.91,0,*6A
1497413118.27,7708,17.88,73522.5,-1.15,-2.03,-1.99,0,*6D
1497413119.46,7709,17.88,73522.3,-1.15,-2.27,-2.15,0,*6D
1497413120.66,7710,17.88,73522.5,-1.15,-2.23,-2.15,0,*61
1497413121.91,7711,17.88,73536.0,-1.15,-1.99,-1.91,0,*6D
1497413123.16,7712,17.88,73538.5,-1.15,-2.11,-1.99,0,*65
1497413124.35,7713,17.88,73534.3,-1.15,-2.39,-2.35,0,*6B
1497413125.54,7714,17.88,73526.3,-1.15,-2.35,-2.27,0,*63
1497413126.72,7715,17.88,73530.0,-1.17,-2.19,-2.15,0,*6F
1497413127.94,7716,17.88,73528.8,-1.15,-2.23,-2.03,0,*60
1497413129.19,7717,17.88,73532.8,-1.15,-2.11,-2.03,0,*60
1497413130.44,7718,17.88,73536.3,-1.15,-2.03,-2.11,0,*6F
1497413131.69,7719,17.88,73536.0,-1.15,-2.11,-2.03,0,*6E
1497413132.89,7720,17.88,73540.5,-1.15,-2.23,-2.23,0,*67
1497413134.08,7721,17.88,73540.3,-1.15,-2.27,-2.27,0,*66
1497413135.32,7722,17.88,73536.3,-1.13,-2.15,-2.11,0,*67
1497413136.54,7723,17.88,73538.3,-1.15,-2.15,-2.11,0,*60
1497413137.78,7724,17.88,73542.5,-1.15,-2.03,-1.91,0,*6B
1497413139.03,7725,17.88,73532.3,-1.15,-1.91,-1.87,0,*65
1497413140.25,7726,17.88,73528.0,-1.15,-1.83,-1.75,0,*68
1497413141.48,7727,17.88,73528.5,-1.13,-1.71,-1.71,0,*66
1497413142.69,7728,17.88,73528.0,-1.13,-1.59,-1.51,0,*61
1497413143.91,7729,17.88,73526.5,-1.11,-1.55,-1.47,0,*69
1497413145.13,7730,17.88,73540.5,-1.11,-1.55,-1.47,0,*61
1497413146.34,7731,17.88,73550.8,-1.13,-1.59,-1.51,0,*69
1497413147.58,7732,17.88,73542.5,-1.11,-1.47,-1.43,0,*64
1497413148.78,7733,17.88,73558.5,-1.11,-1.67,-1.67,0,*61
1497413150.02,7734,17.88,73552.5,-1.05,-2.79,-2.07,0,*6A
1497413151.23,7735,17.88,73556.3,-1.05,-4.17,-2.43,0,*65
1497413152.46,7736,17.88,73546.0,-1.05,-4.85,-2.91,0,*62
1497413153.67,7737,17.88,73544.0,-1.07,-3.83,-2.83,0,*63
1497413154.89,7738,17.88,73542.8,-1.11,-2.95,-2.55,0,*66
1497413156.11,7739,17.88,73542.5,-1.11,-2.47,-2.35,0,*6E
1497413157.31,7740,17.88,73528.3,-1.11,-2.35,-2.23,0,*62
1497413158.53,7741,17.88,73530.5,-1.11,-2.47,-2.35,0,*61
1497413159.71,7742,17.88,73524.0,-1.11,-2.43,-2.43,0,*67
1497413160.93,7743,17.88,73530.3,-1.11,-2.23,-2.11,0,*67
1497413162.16,7744,17.88,73532.8,-1.11,-1.95,-1.95,0,*61
1497413163.41,7745,17.88,73512.5,-1.07,-2.07,-2.11,0,*60
1497413164.63,7746,17.88,73508.8,-1.13,-2.23,-2.15,0,*64
1497413165.85,7747,17.88,73498.3,-1.11,-1.87,-1.71,0,*6B
1497413167.04,7748,17.88,73508.8,-1.11,-1.67,-1.55,0,*6C
1497413168.23,7749,17.88,73526.5,-1.07,-1.67,-1.59,0,*66
1497413169.42,7750,17.88,73526.8,-1.11,-1.67,-1.55,0,*65
1497413170.64,7751,17.88,73534.5,-1.07,-1.63,-1.43,0,*60
1497413171.83,7752,17.88,73524.0,-1.07,-2.43,-2.35,0,*60
1497413173.07,7753,17.88,73522.5,-1.07,-2.75,-2.75,0,*60
1497413174.32,7754,17.88,73526.8,-1.07,-2.75,-2.67,0,*64
1497413175.52,7755,17.88,73516.0,-1.11,-2.35,-2.31,0,*65
1497413176.71,7756,17.88,73526.5,-1.07,-2.35,-2.31,0,*61
1497413177.96,7757,17.88,73518.0,-1.07,-2.55,-2.55,0,*64
1497413179.18,7758,17.88,73530.8,-1.11,-2.47,-2.43,0,*68
1497413180.39,7759,17.88,73538.0,-1.13,-2.35,-2.27,0,*6C
1497413181.58,7760,17.88,73522.8,-1.11,-2.83,-2.79,0,*62
1497413182.82,7761,17.88,73508.5,-1.11,-2.75,-2.71,0,*62
1497413184.1,7762,17.88,73502.5,-1.13,-2.63,-2.51,0,*66
1497413185.32,7763,17.88,73516.3,-1.13,-2.27,-2.15,0,*67
1497413186.53,7764,17.88,73518.0,-1.11,-1.87,-1.79,0,*62
1497413187.75,7765,17.88,73520.8,-1.13,-1.71,-1.59,0,*6A
1497413188.97,7766,17.88,73522.5,-1.11,-1.67,-1.47,0,*63
1497413190.18,7767,17.88,73524.5,-1.11,-1.59,-1.43,0,*6B
1497413191.43,7768,17.88,73516.5,-1.11,-1.43,-1.43,0,*6F
1497413192.62,7769,17.88,73514.8,-1.11,-1.67,-1.55,0,*6F
1497413193.83,7770,17.88,73518.3,-1.05,-1.63,-1.55,0,*66
1497413195.04,7771,17.88,73522.8,-1.05,-1.79,-1.75,0,*6E
1497413196.3,7772,17.88,73534.8,-1.05,-2.07,-1.95,0,*69
1497413197.56,7773,17.88,73530.0,-1.07,-1.99,-1.99,0,*62
1497413198.76,7774,17.88,73538.0,-1.07,-1.79,-1.71,0,*6D
1497413199.97,7775,17.88,73548.3,-1.05,-1.75,-1.63,0,*61
1497413201.21,7776,17.88,73532.5,-1.05,-1.91,-1.79,0,*63
1497413202.48,7777,17.88,73526.5,-1.05,-2.03,-1.83,0,*6F
1497413203.68,7778,17.88,73518.0,-1.07,-1.79,-1.71,0,*61
1497413204.94,7779,17.88,73524.8,-1.05,-1.95,-1.83,0,*6D
1497413206.2,7780,17.88,73526.8,-1.05,-1.95,-1.91,0,*68
1497413207.42,7781,17.88,73514.5,-1.03,-2.19,-2.03,0,*60
1497413208.64,7782,17.88,73524.5,-1.03,-2.51,-2.31,0,*6E
1497413209.85,7783,17.88,73526.3,-1.05,-1.67,-1.51,0,*6A
1497413211.09,7784,17.88,73530.0,-1.01,-1.25,-1.13,0,*69
1497413212.27,7785,17.88,73522.0,-1.03,-1.51,-1.33,0,*6B
1497413213.52,7786,17.88,73520.8,-1.01,-1.17,-1.13,0,*6A
1497413214.73,7787,17.88,73534.8,-1.01,-1.25,-1.17,0,*6E
1497413215.94,7788,17.88,73538.5,-0.99,-1.51,-1.35,0,*52
1497413217.18,7789,17.88,73540.0,-0.99,-2.11,-1.99,0,*52
1497413218.36,7790,17.88,73540.0,-0.99,-2.27,-2.27,0,*59
1497413219.55,7791,17.88,73532.5,-0.99,-2.35,-2.15,0,*5A
1497413220.73,7792,17.88,73530.8,-0.99,-2.23,-2.15,0,*5E
1497413221.98,7793,17.88,73534.5,-0.99,-2.03,-1.99,0,*5A
1497413223.19,7794,17.88,73538.0,-0.99,-1.87,-1.75,0,*50
1497413224.41,7795,17.88,73540.3,-1.01,-1.71,-1.51,0,*6E
1497413225.66,7796,17.88,73536.3,-1.01,-1.71,-1.47,0,*6A
1497413226.9,7797,17.88,73540.0,-0.99,-1.39,-1.35,0,*52
1497413228.09,7798,17.88,73550.3,-0.99,-1.29,-1.17,0,*5C
1497413229.35,7799,17.88,73550.0,-0.97,-1.13,-1.09,0,*55
1497413230.56,7800,17.88,73550.8,-0.97,-1.33,-1.25,0,*56
1497413231.77,7801,17.88,73550.5,-0.97,-1.25,-1.21,0,*54
1497413232.97,7802,17.88,73546.3,-0.95,-1.51,-1.43,0,*52
1497413234.18,7803,17.88,73548.8,-0.95,-2.15,-1.95,0,*5B
1497413235.39,7804,17.88,73554.0,-0.95,-2.55,-2.39,0,*5D
1497413236.6,7805,17.88,73554.0,-0.93,-3.03,-2.83,0,*59
1497413237.78,7806,17.88,73550.3,-0.95,-3.31,-2.83,0,*5D
1497413239.03,7807,17.88,73546.0,-0.97,-3.75,-2.75,0,*57
1497413240.27,7808,17.88,73530.3,-0.97,-2.95,-2.75,0,*57
1497413241.48,7809,17.88,73534.3,-0.99,-2.59,-2.39,0,*50
1497413242.67,7810,17.88,73536.3,-0.99,-1.75,-1.63,0,*59
1497413243.91,7811,17.88,73538.0,-0.97,-1.43,-1.21,0,*55
1497413245.14,7812,17.88,73532.3,-0.97,-1.25,-1.09,0,*5C
1497413246.37,7813,17.88,73544.0,-0.97,-1.25,-1.09,0,*5D
1497413247.62,7814,17.88,73548.0,-0.97,-1.13,-1.09,0,*5F
1497413248.84,7815,17.88,73558.8,-0.93,-1.21,-1.17,0,*54
1497413250.05,7816,17.88,73552.0,-0.93,-1.71,-1.67,0,*55
1497413251.24,7817,17.88,73544.0,-0.95,-2.19,-2.15,0,*59
1497413252.47,7818,17.88,73536.5,-0.93,-2.15,-2.03,0,*5B
1497413253.66,7819,17.88,73536.3,-0.95,-2.39,-2.31,0,*53
1497413254.89,7820,17.88,73538.8,-0.93,-2.15,-2.03,0,*50
1497413256.12,7821,17.88,73540.8,-0.95,-2.07,-1.95,0,*58
1497413257.33,7822,17.88,73544.3,-0.95,-2.15,-1.91,0,*5C
1497413258.56,7823,17.88,73544.5,-0.93,-2.79,-2.55,0,*5A
1497413259.75,7824,17.88,73540.3,-0.95,-2.43,-2.31,0,*50
1497413260.96,7825,17.88,73548.5,-0.95,-2.51,-2.19,0,*58
1497413262.17,7826,17.88,73546.8,-0.95,-2.59,-2.31,0,*59
1497413263.39,7827,17.88,73552.3,-0.95,-2.31,-2.07,0,*53
1497413264.6,7828,17.88,73548.0,-0.97,-2.43,-2.23,0,*5D
1497413265.84,7829,17.88,73550.5,-0.97,-2.23,-2.07,0,*5C
1497413267.09,7830,17.88,73546.0,-0.97,-1.99,-1.95,0,*5E
1497413268.36,7831,17.88,73552.3,-0.97,-2.11,-1.99,0,*50
1497413269.62,7832,17.88,73548.3,-0.97,-2.07,-1.87,0,*5B
1497413270.83,7833,17.88,73542.0,-0.97,-1.71,-1.59,0,*5B
1497413272.05,7834,17.88,73550.8,-0.97,-1.67,-1.67,0,*56
1497413273.28,7835,17.88,73550.8,-0.95,-2.07,-1.95,0,*5D
1497413274.49,7836,17.88,73550.5,-0.97,-1.75,-1.67,0,*57
1497413275.73,7837,17.88,73546.5,-0.95,-2.03,-1.91,0,*5F
1497413276.94,7838,17.88,73540.0,-0.95,-2.15,-2.07,0,*5B
1497413278.18,7839,17.88,73536.5,-0.95,-2.03,-1.83,0,*52
1497413279.39,7840,17.88,73544.0,-0.95,-1.51,-1.39,0,*59
1497413280.6,7841,17.88,73554.3,-0.93,-1.33,-1.21,0,*53
1497413281.81,7842,17.88,73558.0,-0.93,-1.71,-1.63,0,*50
1497413283.05,7843,17.88,73544.5,-0.93,-1.91,-1.79,0,*54
1497413284.29,7844,17.88,73544.0,-0.95,-2.07,-2.03,0,*57
1497413285.55,7845,17.88,73550.5,-0.93,-2.03,-1.83,0,*5F
1497413286.76,7846,17.88,73550.3,-0.93,-1.55,-1.51,0,*53
1497413287.99,7847,17.88,73540.5,-0.93,-1.39,-1.29,0,*57
1497413289.23,7848,17.88,73538.0,-0.93,-1.21,-1.09,0,*53
1497413290.47,7849,17.88,73548.0,-0.95,-1.05,-1.05,0,*5E
1497413291.73,7850,17.88,73534.3,-0.93,-1.09,-1.05,0,*5C
1497413292.98,7851,17.88,73538.8,-0.89,-1.01,-0.93,0,*60
1497413294.23,7852,17.88,73548.3,-0.89,-1.13,-1.01,0,*5A
1497413295.49,7853,17.88,73546.8,-0.89,-1.47,-1.35,0,*5D
1497413296.69,7854,17.88,73536.8,-0.89,-1.63,-1.59,0,*56
1497413297.92,7855,17.88,73546.5,-0.85,-1.59,-1.43,0,*59
1497413299.12,7856,17.88,73548.5,-0.85,-1.55,-1.33,0,*51
1497413300.38,7857,17.88,73546.3,-0.85,-2.71,-1.99,0,*55
1497413301.61,7858,17.88,73542.8,-0.85,-2.87,-2.47,0,*53
1497413302.84,7859,17.88,73542.3,-0.89,-2.63,-2.27,0,*52
1497413304.05,7860,17.88,73546.8,-0.91,-2.27,-1.91,0,*5F
1497413305.27,7861,17.88,73546.5,-0.89,-2.39,-2.03,0,*50
1497413306.51,7862,17.88,73538.8,-0.89,-2.51,-2.15,0,*5A
1497413307.74,7863,17.88,73542.0,-0.89,-2.79,-2.47,0,*56
1497413308.94,7864,17.88,73532.5,-0.89,-3.11,-2.79,0,*53
1497413310.13,7865,17.88,73530.3,-0.91,-3.15,-3.15,0,*54
1497413311.36,7866,17.88,73534.8,-0.93,-3.47,-3.35,0,*50
1497413312.57,7867,17.88,73534.0,-0.93,-3.31,-3.31,0,*54
1497413313.76,7868,17.88,73532.8,-0.95,-3.31,-3.27,0,*5A
1497413314.97,7869,17.88,73536.5,-0.97,-3.19,-2.99,0,*57